Wind_Speed
9 9 9 9 8 7 6 6 5 5 6 6 6 6 6 6 6 5 5 5 5 6 6 6 6 7 8 8 6 5 4 4 4 5 5 5 5 5 5 5 6 6 7 6 5 5 5 5 5 4 4 4 3 3 2 3 3 3 3 3 2 2 3 4 4 4 4 4 4 5 5 6 7 7 8 9 9 9 9 9 9 9 9 9 9
9 9 9 8 7 6 6 5 5 5 5 5 5 5 5 6 5 5 4 4 5 5 6 6 8 9 9 8 7 5 5 5 4 5 5 5 5 4 4 4 4 5 6 6 5 5 5 5 5 5 4 4 4 3 3 4 4 4 3 4 3 3 3 4 5 5 4 5 5 6 6 7 8 8 8 9 9 9 9 9 9 9 8 8 8
8 8 8 8 7 7 6 5 5 5 5 5 5 5 5 5 5 5 4 5 5 5 6 6 8 9 9 8 7 6 6 5 5 5 5 5 4 3 3 3 3 3 4 5 5 5 5 5 5 4 4 4 4 4 4 4 5 4 4 4 4 4 4 5 6 6 6 6 7 8 8 8 9 9 9 10 10 9 9 9 9 8 8 8 7
8 8 9 8 8 7 6 6 6 6 5 5 6 6 5 5 5 5 4 5 5 5 6 7 9 9 8 9 9 8 7 6 5 5 5 5 5 4 3 3 3 3 4 4 4 5 5 5 5 5 5 5 5 5 5 5 5 5 5 5 5 5 6 6 6 7 8 8 9 9 10 10 11 10 10 10 10 9 9 9 9 9 8 7 5
8 8 9 9 8 8 7 7 6 6 6 6 6 6 6 5 5 5 4 5 5 5 4 6 11 10 9 10 10 8 7 6 5 4 5 5 5 4 4 4 4 4 4 4 4 4 4 4 4 5 5 5 5 5 5 6 6 6 5 5 6 6 7 7 7 8 9 10 10 11 11 11 11 11 10 10 10 10 9 9 9 9 8 7 5
9 9 9 9 8 8 8 8 8 8 7 6 6 6 6 6 6 5 5 5 5 5 3 4 10 12 10 10 9 8 7 6 5 4 4 4 5 5 5 5 5 5 5 5 5 5 5 5 5 5 6 6 6 6 6 6 7 7 7 7 7 8 8 8 9 10 10 11 11 12 12 12 12 11 10 10 10 10 10 9 9 8 7 7 6
10 10 10 10 8 9 9 9 10 9 7 7 6 6 6 7 7 6 6 6 5 5 3 4 10 12 11 11 9 8 7 6 5 5 4 4 5 5 5 5 5 5 5 5 5 5 5 6 6 7 7 7 7 7 8 8 8 8 8 8 9 9 9 10 11 11 12 12 12 12 12 12 11 11 11 11 11 10 10 9 9 8 8 6 6
10 10 11 10 8 9 9 9 9 8 7 7 6 5 5 7 7 7 6 6 6 4 2 4 9 11 10 10 10 8 7 6 5 5 5 5 5 5 5 5 5 5 5 5 5 5 5 6 7 8 9 9 9 9 9 9 9 9 9 10 10 10 11 11 12 12 13 13 13 13 12 12 11 11 11 11 10 10 10 10 9 9 8 7 7
12 11 11 10 9 9 9 9 8 8 8 8 7 5 6 7 7 7 6 6 6 4 3 3 7 11 10 10 10 9 8 6 5 5 6 6 6 5 4 4 5 5 5 5 5 5 5 6 7 8 9 10 10 10 10 10 10 11 11 11 11 11 11 12 13 13 13 13 12 12 12 12 12 12 12 11 11 10 10 10 10 10 9 8 7
13 13 12 11 9 9 9 9 8 8 8 8 7 6 7 7 7 7 6 7 6 5 4 3 6 10 9 9 11 10 8 6 5 6 7 7 6 6 5 4 5 5 5 5 5 5 5 6 7 8 9 9 10 10 10 10 10 10 11 11 12 11 12 12 13 13 13 12 12 11 11 12 12 12 12 11 11 11 11 11 11 11 10 9 8
13 13 12 11 10 10 9 9 9 8 8 9 8 7 7 7 7 7 6 7 7 6 5 5 5 7 7 6 8 8 7 6 6 7 7 7 7 7 7 6 5 5 5 6 6 6 6 6 7 8 8 9 9 9 9 9 9 10 10 11 12 12 12 12 13 12 12 12 12 12 12 12 12 12 12 11 11 12 11 12 12 11 11 10 10
13 13 12 11 10 10 10 9 9 8 9 9 9 8 7 7 7 6 6 6 7 6 7 6 5 7 6 6 7 7 6 6 7 7 7 7 7 8 9 8 7 6 6 6 7 7 7 7 8 8 9 9 8 8 9 9 9 9 9 10 11 11 12 12 12 12 12 12 12 13 13 12 12 12 12 12 12 13 12 12 12 12 12 11 11
13 12 12 11 11 11 10 9 9 8 9 9 9 9 8 8 7 6 5 5 6 7 8 7 6 7 6 5 6 7 6 6 7 7 7 7 8 9 10 10 10 8 7 8 8 8 8 8 8 9 9 9 8 8 9 8 8 8 8 8 9 10 11 12 13 13 12 13 13 14 13 13 12 12 13 13 13 13 13 13 13 13 12 12 12
15 13 12 12 12 11 11 10 9 9 9 10 11 10 9 8 8 6 4 3 5 7 8 7 7 6 4 3 2 4 6 7 8 8 9 9 10 11 12 12 12 11 10 10 10 10 9 9 9 10 10 9 9 9 9 9 8 8 8 8 8 9 10 11 13 13 13 13 13 13 14 14 14 13 13 14 13 13 13 13 14 13 13 13 13
16 15 14 13 12 11 11 10 9 9 9 10 11 11 10 10 9 7 4 4 6 8 7 5 7 7 3 1 1 1 3 6 8 9 10 12 12 13 13 14 14 13 13 13 12 11 10 10 10 10 10 10 10 10 10 10 9 9 9 10 10 10 11 11 13 13 13 13 13 13 13 13 13 14 14 14 14 14 13 13 14 14 14 14 13
17 16 15 13 12 11 11 10 10 9 9 10 11 11 11 11 9 7 6 5 6 9 7 3 7 8 3 1 0 2 2 4 7 9 10 11 13 14 14 15 15 14 15 15 14 13 12 12 12 12 11 11 11 12 12 11 11 11 11 11 11 11 11 11 12 13 13 13 13 13 13 13 13 13 14 14 14 14 14 14 14 15 15 15 14
18 17 16 14 12 11 11 10 10 9 9 10 10 10 10 11 9 8 6 5 5 7 7 4 5 9 6 2 1 1 2 2 3 6 9 11 12 12 14 15 15 16 16 15 15 14 14 13 13 13 13 13 13 13 13 12 12 11 11 11 10 10 10 10 11 12 12 12 13 13 13 14 14 14 14 14 14 14 15 15 14 15 15 15 15
18 18 16 14 12 11 11 11 10 9 9 9 9 10 10 10 9 8 7 5 4 5 7 5 4 8 9 5 2 2 3 1 1 2 6 9 10 10 11 13 14 16 17 17 17 16 16 15 14 14 14 14 14 14 14 13 13 12 11 10 9 9 10 10 10 11 12 12 12 13 13 14 14 14 15 15 15 15 15 16 16 16 16 16 17
19 19 17 15 13 12 12 11 10 9 9 9 10 10 10 10 9 8 7 6 6 6 7 7 6 7 8 8 7 5 3 2 2 0 2 5 8 10 11 11 13 16 18 19 19 18 18 17 16 16 15 15 15 15 15 15 14 13 12 11 9 9 10 10 10 11 11 12 12 13 13 14 14 15 15 15 16 16 16 17 17 17 17 17 18
19 19 19 16 14 13 12 11 10 10 10 10 10 10 10 10 9 8 8 7 7 7 7 7 7 6 6 8 8 6 4 4 4 2 2 1 5 6 9 11 13 15 16 17 19 20 19 19 18 18 17 17 17 16 16 16 16 15 14 13 11 11 11 12 12 12 13 13 14 14 15 15 15 16 16 16 17 17 17 18 18 18 18 19 19
20 19 19 18 16 14 12 11 10 10 11 10 10 10 10 10 9 9 9 8 8 8 8 8 8 6 5 6 6 4 3 4 5 4 2 0 3 4 6 8 9 11 12 14 17 19 20 20 20 20 19 19 18 18 18 17 17 16 15 14 14 13 13 13 14 14 15 15 16 17 17 17 18 18 18 19 19 19 19 20 20 20 21 21 21
21 20 19 19 17 15 13 12 11 11 11 11 11 11 11 10 10 9 9 8 8 9 8 7 7 6 4 5 6 4 3 4 4 4 3 2 2 4 7 8 7 8 8 10 14 16 18 20 20 21 20 19 19 18 19 18 17 17 16 15 15 15 15 15 16 16 16 17 18 18 19 19 20 20 21 21 21 21 22 22 22 23 23 24 24
21 20 20 20 18 17 15 13 12 12 12 12 12 12 12 11 10 10 10 9 8 10 10 8 7 7 6 5 5 5 6 7 5 4 4 3 2 5 8 7 6 6 7 7 10 12 14 17 18 19 19 19 18 18 19 19 18 18 17 16 16 16 16 16 17 17 18 18 19 20 20 21 21 22 22 23 23 23 24 24 24 25 26 26 26
22 22 21 21 20 18 16 15 14 15 14 13 13 13 12 12 12 12 11 10 10 10 11 10 9 9 7 6 5 7 8 8 7 6 6 5 4 5 6 5 4 6 7 8 8 9 11 13 15 16 17 18 19 19 20 20 20 19 18 17 17 16 16 17 18 18 19 20 21 21 22 22 23 23 23 24 24 25 25 26 26 27 28 29 29
25 24 23 22 21 20 19 18 17 17 17 15 14 13 13 13 12 13 12 12 11 11 12 12 11 11 9 7 7 8 8 6 7 8 9 8 6 6 6 4 3 6 8 8 7 8 9 10 10 11 12 14 16 17 18 20 20 20 20 20 19 17 17 18 19 20 21 22 23 23 24 24 24 24 24 24 25 25 26 27 27 28 29 30 31
27 26 25 24 22 21 20 19 18 17 17 17 15 14 14 13 13 14 14 12 11 11 11 12 12 12 11 9 8 8 7 6 7 8 9 9 9 8 6 4 4 6 6 6 7 7 7 7 7 6 8 11 12 13 13 14 16 17 19 21 20 19 19 20 20 21 22 23 23 24 24 24 24 24 24 25 25 26 26 27 27 28 29 30 31
26 26 25 25 23 22 21 20 19 18 17 18 18 16 15 14 14 14 15 14 12 11 11 11 12 13 12 10 9 8 7 8 8 8 9 9 9 8 6 4 3 5 5 5 6 7 7 7 7 6 6 11 13 13 12 12 13 14 15 17 18 17 17 18 19 19 20 20 20 20 21 21 21 22 22 23 23 24 25 26 27 28 28 28 28
25 25 25 26 25 23 23 22 20 19 17 18 19 19 17 16 14 13 14 15 14 12 11 11 11 13 13 12 11 9 8 8 8 8 8 8 5 5 6 5 2 3 4 4 4 4 4 6 6 5 5 9 12 13 13 13 13 13 14 15 15 16 16 17 17 18 18 18 18 18 18 19 19 20 21 21 22 23 23 24 24 24 24 23 23
26 25 25 25 26 25 24 23 21 20 18 18 20 20 19 17 16 14 14 15 16 14 12 11 11 11 14 14 13 11 10 9 8 8 9 8 4 4 6 6 4 2 1 2 4 3 3 5 5 4 6 9 11 12 12 12 13 14 14 15 16 17 17 17 18 18 18 18 18 18 19 20 20 21 21 22 22 22 21 21 20 19 19 20 20
28 26 25 25 26 26 25 24 23 21 20 19 19 20 19 18 17 17 15 14 16 17 15 14 12 11 13 15 15 14 12 10 10 10 10 9 7 6 7 7 6 5 3 2 3 4 5 6 7 7 10 11 12 13 13 13 14 15 16 17 17 18 18 18 18 18 18 19 19 19 19 20 20 20 20 20 19 18 18 17 17 18 18 19 19
30 28 27 26 26 26 26 25 24 22 21 20 20 19 19 19 19 18 17 15 16 17 16 16 14 12 13 14 16 16 14 12 12 11 11 9 8 8 8 8 7 8 7 4 2 5 7 9 11 12 13 14 14 15 15 15 16 17 18 18 18 18 18 18 17 17 18 19 19 18 17 17 17 17 17 17 16 16 16 16 17 18 18 17 16
32 31 29 28 27 27 26 26 25 24 23 22 21 21 21 21 21 20 20 18 18 18 18 17 16 15 15 15 16 17 16 15 13 11 11 10 9 8 8 8 8 9 10 7 6 9 14 15 15 15 14 16 16 16 17 17 17 18 19 18 19 19 19 18 17 17 18 18 17 16 16 16 15 15 15 16 16 16 16 16 17 17 15 15 15
34 32 32 30 29 28 27 27 26 25 25 23 22 22 23 23 23 23 23 22 21 21 21 20 20 19 19 18 18 17 17 17 16 13 12 11 10 9 9 9 10 11 12 11 10 13 18 18 17 16 16 17 17 17 19 20 20 20 20 19 20 20 19 19 18 16 16 16 17 17 15 15 15 15 15 15 15 15 15 16 16 14 14 15 17
35 34 33 32 31 30 29 28 27 26 25 24 24 24 25 25 25 25 25 25 25 24 24 24 24 23 22 22 21 19 18 18 18 17 14 14 13 14 13 12 13 13 13 14 13 13 18 21 20 19 18 18 18 19 19 21 22 22 21 21 21 20 19 18 16 15 16 17 17 16 14 15 15 15 14 14 14 14 15 14 13 13 15 18 19
37 36 35 34 33 31 30 30 29 27 26 26 25 25 26 26 27 27 27 27 27 26 26 25 25 24 24 24 24 22 20 19 19 19 17 16 16 16 16 16 16 15 14 15 15 15 18 22 22 21 20 19 20 20 20 21 22 22 21 22 21 19 16 15 15 16 17 16 15 15 16 15 14 14 14 14 14 13 12 12 13 15 17 18 18
38 38 36 35 34 33 32 31 30 30 28 27 27 27 28 28 28 28 28 28 28 27 27 26 25 24 24 25 25 24 23 21 20 19 18 17 17 17 17 16 16 17 15 15 16 16 18 20 22 22 21 21 22 21 21 22 21 21 21 22 21 17 13 14 17 18 16 15 16 17 17 15 14 14 14 13 12 11 12 13 15 16 16 16 17
39 38 37 36 35 34 34 33 33 32 31 30 29 29 30 30 30 30 29 29 28 28 28 27 27 26 25 25 25 24 24 24 22 21 20 19 19 18 19 18 17 17 17 17 17 17 17 20 23 24 22 22 23 23 22 21 22 23 23 22 20 15 14 17 18 16 15 15 18 19 16 14 14 13 12 11 11 12 13 14 15 15 15 16 17
38 38 37 37 36 36 36 36 35 35 33 32 31 31 31 31 31 31 30 30 30 29 29 28 28 28 28 27 27 25 24 24 24 22 22 21 20 19 19 19 18 17 18 18 19 18 18 20 22 24 24 24 23 23 22 20 22 23 23 23 21 16 16 19 18 16 14 15 18 19 15 13 13 12 10 11 11 13 14 14 14 15 16 17 17
37 37 37 37 37 38 38 38 37 37 36 34 33 32 32 32 32 32 31 31 31 30 30 30 29 29 29 29 28 27 26 25 25 24 23 23 23 22 22 20 19 19 19 20 20 20 20 20 21 23 24 24 23 22 23 23 23 22 20 21 22 20 18 18 17 16 14 15 19 20 14 11 11 10 10 11 12 13 13 13 15 16 17 18 19
36 37 37 37 37 37 38 38 38 38 37 36 35 34 33 33 32 32 32 32 32 32 32 31 30 30 30 30 29 29 28 28 27 26 25 24 23 23 23 22 21 21 21 21 21 21 20 20 21 23 23 24 24 23 24 23 21 21 20 19 21 21 19 17 16 15 15 15 19 19 14 9 9 9 11 12 12 12 13 14 16 17 18 20 21
36 36 36 36 35 36 36 37 37 37 36 36 36 36 35 35 34 34 34 33 33 33 33 32 31 31 31 31 31 30 30 29 29 28 27 26 24 24 22 21 21 21 21 21 21 21 21 20 21 22 22 23 25 23 23 21 19 20 20 19 18 18 17 17 15 14 13 15 19 19 13 9 9 10 12 12 11 12 13 15 17 18 20 22 23
37 36 36 35 35 35 35 35 36 36 36 36 37 37 37 36 36 35 34 34 34 34 33 33 32 32 31 32 32 31 30 30 30 29 29 27 26 25 24 22 22 22 22 22 22 22 21 20 21 21 20 22 25 23 21 21 20 20 19 17 16 15 15 17 16 14 14 16 20 19 12 8 9 11 12 11 10 11 13 15 17 19 21 23 26
38 37 36 36 36 36 35 35 35 35 36 36 37 37 37 37 36 35 35 35 34 34 34 33 33 33 33 32 32 32 31 30 30 29 29 29 28 27 26 25 24 24 24 24 24 23 21 21 22 21 19 22 27 25 22 23 21 20 18 16 15 14 13 12 12 14 15 17 20 18 10 6 9 12 11 9 9 11 13 15 17 19 21 25 27
37 37 37 37 38 37 36 35 35 36 37 37 37 37 38 38 37 36 35 35 34 34 34 34 34 34 33 33 32 32 31 31 30 29 29 30 30 29 28 26 25 25 25 26 26 25 24 23 23 23 23 24 27 27 25 24 21 19 19 18 16 14 12 10 11 13 15 16 18 16 10 6 8 11 10 7 7 9 12 14 17 19 22 25 27
36 36 37 38 38 38 37 37 37 37 38 38 37 37 38 38 38 37 36 35 35 34 34 34 34 34 34 33 32 32 33 32 31 30 30 30 30 30 29 28 27 26 26 26 27 28 28 27 26 28 28 27 28 29 27 25 23 22 21 20 18 15 13 13 14 15 16 16 15 13 9 7 7 10 9 6 5 8 11 14 16 19 23 26 27
36 37 38 38 38 38 38 38 38 38 38 38 38 38 38 39 38 38 37 36 36 35 35 35 34 34 34 33 33 33 34 33 32 31 30 30 30 30 29 29 28 26 26 26 27 27 29 29 30 32 32 30 30 30 28 26 25 24 22 21 19 17 16 17 17 17 16 14 12 9 7 6 7 9 8 5 4 6 10 13 15 20 24 26 26
37 38 38 37 38 38 38 38 37 38 39 39 38 38 38 39 38 38 37 37 36 35 35 35 35 35 34 34 34 34 34 34 34 33 32 31 30 29 30 29 29 28 27 27 27 27 28 29 30 31 31 30 31 31 29 27 26 25 23 21 20 19 18 18 19 17 14 11 9 6 5 7 7 8 8 5 4 6 9 11 14 20 24 25 26
37 37 37 37 38 38 38 38 37 38 40 40 39 39 39 38 38 37 37 37 36 36 36 36 36 36 36 35 34 35 35 36 35 34 33 31 30 29 30 31 30 30 30 28 27 27 28 29 29 28 27 27 28 29 29 27 24 24 23 22 22 20 17 16 19 17 12 9 8 7 6 7 8 8 7 5 6 6 9 10 14 19 23 24 25
36 36 37 38 38 38 37 37 37 39 40 40 40 40 40 38 37 37 37 37 36 36 36 37 36 36 37 37 36 36 36 37 37 36 34 32 30 30 30 31 31 32 32 31 30 30 29 29 29 29 28 26 26 26 25 24 22 23 23 23 23 21 15 12 14 14 11 9 9 8 7 7 8 8 7 5 7 8 8 10 13 18 22 23 24
36 36 37 37 37 37 38 39 39 40 41 41 40 40 40 39 37 37 37 36 36 36 36 37 37 37 37 38 37 36 37 37 38 37 35 32 30 30 31 31 30 31 33 33 32 31 30 30 30 29 28 26 25 24 24 22 21 22 23 24 24 20 15 13 13 13 11 11 11 9 6 6 7 7 7 6 6 8 7 9 12 17 21 21 22
36 36 36 35 36 37 38 39 40 40 41 41 40 40 40 39 38 37 37 35 35 35 36 36 36 36 37 38 37 37 37 38 38 38 35 33 31 31 31 30 29 31 34 34 32 32 31 30 30 29 27 25 24 23 23 22 21 21 23 25 24 20 18 18 16 12 8 8 9 9 6 5 5 4 6 6 4 5 5 8 11 17 20 20 20
Wind_Direction
175 177 175 171 172 173 172 172 171 171 171 169 167 161 156 156 160 168 171 179 188 190 186 191 205 211 217 228 229 227 230 230 215 199 194 193 198 193 187 189 192 195 196 200 211 218 226 231 235 240 248 261 256 250 261 262 258 256 254 262 277 293 303 313 321 329 331 331 334 335 333 328 324 325 329 330 332 335 342 348 353 359 360 359 355
182 184 184 182 183 185 185 188 189 182 174 172 173 170 161 155 159 161 165 181 193 201 201 205 214 216 220 227 225 222 222 225 220 208 199 191 189 172 165 179 184 191 195 198 208 216 231 236 238 246 251 262 258 253 262 261 256 257 265 275 287 293 296 304 311 321 326 321 320 319 317 316 315 319 322 322 325 331 339 345 348 353 352 349 347
192 193 194 196 197 198 200 200 200 191 184 181 181 183 174 164 166 167 168 181 192 207 214 216 215 215 221 227 224 217 217 221 218 215 211 200 196 179 162 171 183 189 196 204 213 216 227 234 239 248 252 261 263 258 258 258 259 263 269 277 285 290 295 301 308 314 314 310 308 308 311 314 315 317 318 319 325 330 335 341 342 344 341 340 344
208 207 206 207 208 210 211 206 202 199 193 189 191 193 186 177 176 176 178 183 189 205 215 218 218 217 219 223 222 217 214 217 218 217 217 212 211 207 193 190 195 198 202 211 219 221 226 231 234 241 246 251 259 259 257 261 265 268 272 277 284 286 291 299 306 307 306 308 309 311 315 316 314 316 318 320 325 327 331 336 334 333 331 334 340
216 220 217 215 215 215 212 205 199 197 196 193 193 191 191 194 189 187 194 198 200 204 215 221 221 221 218 218 220 216 214 215 219 219 216 219 219 219 218 213 212 213 216 220 227 232 235 241 242 245 250 254 261 263 262 267 270 273 277 277 280 284 290 298 302 301 304 308 309 311 312 312 313 316 318 319 320 322 326 327 325 327 326 330 329
216 223 221 216 215 211 207 202 196 196 196 192 191 193 200 206 204 205 209 216 216 210 227 224 217 219 217 217 218 217 217 215 219 223 217 218 222 225 226 224 225 228 232 234 239 247 250 256 260 260 262 265 270 273 272 271 272 275 280 281 284 288 295 300 300 299 300 303 303 306 307 310 313 314 315 314 314 317 319 319 319 320 319 322 317
216 222 220 216 215 208 202 198 194 193 194 195 195 196 203 209 211 212 214 220 216 210 245 230 208 212 214 212 215 215 216 218 220 225 223 220 224 229 232 234 236 240 245 249 253 259 263 266 267 268 269 270 273 276 277 276 276 277 280 284 287 291 296 296 298 299 298 298 299 301 304 307 311 310 310 309 310 312 312 311 310 311 311 308 301
221 223 221 215 212 207 200 192 191 193 199 204 200 197 208 212 213 215 216 215 207 200 238 223 201 206 210 208 213 216 214 218 223 228 231 232 231 231 236 241 243 248 250 255 260 265 272 274 273 273 274 274 275 277 279 279 280 279 279 281 283 287 292 293 296 297 296 296 296 297 300 304 306 305 306 305 306 305 303 302 302 302 301 295 289
221 220 218 209 202 198 195 192 194 198 198 198 195 204 215 213 215 214 210 209 204 199 206 193 192 203 211 212 215 219 219 220 225 234 239 240 240 236 237 240 243 252 250 252 261 268 274 277 279 279 277 277 278 279 280 281 282 283 282 282 281 283 287 289 291 292 294 297 297 297 299 299 299 299 300 300 299 298 296 296 295 294 291 288 282
213 213 210 202 194 190 194 196 199 200 192 187 189 201 205 207 212 207 204 204 201 197 183 158 180 200 210 217 220 223 226 224 227 238 243 247 248 247 249 245 246 255 256 257 259 265 272 277 280 283 283 283 282 283 282 283 282 282 284 283 282 282 283 285 287 290 292 294 296 297 296 295 294 294 295 295 294 292 291 291 290 289 286 283 278
207 206 203 199 194 193 198 201 203 202 194 187 188 197 196 199 202 199 202 202 202 204 186 168 172 187 190 200 213 220 222 218 226 241 249 253 254 256 259 256 257 263 268 270 264 264 271 275 278 284 290 289 285 284 282 283 284 284 285 285 284 282 281 282 283 287 289 290 291 290 290 288 288 289 288 286 286 286 287 287 285 284 282 279 278
205 203 202 202 200 199 201 203 205 205 200 193 193 198 197 196 198 198 205 207 213 210 195 189 175 165 164 174 196 206 212 217 228 240 247 253 254 257 261 260 261 267 275 278 275 274 277 279 281 286 294 293 287 283 280 282 285 287 288 288 288 287 288 286 284 284 286 288 288 288 289 288 287 287 286 281 279 280 283 284 282 283 283 281 279
207 206 206 209 208 205 204 206 207 204 204 202 202 207 203 200 199 200 210 214 214 205 203 203 178 162 167 179 194 200 206 225 240 246 250 256 259 259 264 266 263 265 274 278 280 282 283 285 285 288 293 295 290 284 282 282 283 286 289 292 293 293 295 295 293 288 283 283 285 288 291 293 292 289 289 288 284 281 281 282 283 282 282 280 279
211 210 212 216 215 211 208 208 206 201 203 207 210 215 211 206 202 203 208 204 198 197 202 201 181 177 177 171 208 220 224 239 245 250 258 263 265 264 264 268 269 269 271 273 277 280 283 284 283 285 288 290 292 290 287 284 283 286 287 291 295 298 301 301 301 296 288 285 286 288 290 292 294 291 292 294 290 286 282 281 281 280 279 277 276
212 213 216 219 220 217 210 207 205 201 204 208 211 216 215 211 207 205 198 184 179 179 180 177 176 173 147 104 314 303 271 268 254 251 263 266 265 266 266 269 273 273 271 270 271 274 278 281 279 282 284 287 290 291 290 290 291 291 287 287 290 294 298 299 302 302 299 299 297 296 295 294 296 294 296 299 296 292 288 287 286 284 283 281 278
211 213 217 219 221 219 211 205 204 203 206 209 212 215 214 212 210 208 197 180 175 178 178 185 195 185 140 74 42 46 316 284 270 260 264 267 267 271 273 274 276 274 271 269 270 273 276 277 278 280 282 284 286 288 290 293 295 294 290 289 289 292 295 297 302 305 306 307 305 304 304 304 302 301 301 302 302 299 297 296 294 291 290 288 284
212 212 215 220 220 214 209 206 205 204 206 210 214 215 212 210 212 211 203 190 180 186 196 210 216 207 191 148 77 40 249 265 300 273 262 263 268 274 276 276 277 274 272 271 271 273 274 275 277 279 281 284 285 286 289 293 296 296 295 294 292 292 294 299 305 308 309 310 310 308 309 309 308 307 306 305 306 303 301 300 297 295 293 291 288
212 212 214 218 216 208 205 205 206 207 207 209 211 214 211 209 211 211 209 212 204 201 211 222 225 216 216 225 243 262 250 207 92 293 275 264 259 268 276 278 277 274 272 272 272 272 273 274 277 280 283 284 285 286 289 292 294 295 298 300 296 293 295 300 304 308 310 312 312 311 311 311 310 309 308 307 307 306 304 302 300 297 295 293 291
211 211 214 214 210 205 202 204 209 209 209 209 210 212 211 209 211 211 214 221 226 227 229 230 225 223 231 241 253 276 276 202 172 250 304 272 262 267 275 277 275 274 273 273 273 272 273 273 275 279 283 285 286 287 288 290 292 292 295 299 298 294 294 298 301 303 306 308 310 311 311 311 310 310 310 308 307 307 306 305 303 300 297 295 292
210 210 212 210 207 207 204 205 210 211 210 210 210 210 210 211 212 214 217 221 229 236 237 234 227 232 245 242 253 280 265 226 241 243 164 272 290 278 276 281 280 277 276 275 272 271 274 275 276 280 284 287 287 287 289 290 291 291 292 295 297 296 296 298 300 302 303 303 304 306 307 308 309 309 310 309 308 307 306 305 304 303 300 297 294
210 210 210 208 208 211 210 208 208 209 210 210 209 210 211 215 218 217 217 219 229 233 238 241 234 239 259 245 247 267 246 241 257 243 176 201 290 275 291 307 304 293 286 280 275 272 273 276 278 280 284 288 288 287 289 290 291 293 294 297 297 298 299 299 301 302 302 302 302 303 304 306 308 309 309 310 309 308 307 305 304 303 301 299 296
210 210 209 209 209 210 213 214 210 209 212 214 213 213 216 220 224 224 221 223 231 231 232 239 236 243 265 255 247 251 247 243 240 234 233 244 253 280 303 311 312 316 312 296 286 279 278 278 278 280 283 286 289 288 289 290 292 294 297 300 300 300 301 302 304 306 307 307 306 305 305 306 307 308 309 309 309 308 307 306 305 303 302 300 298
210 211 211 213 213 212 215 219 217 214 215 218 218 218 220 224 228 229 228 232 236 232 229 230 232 242 257 260 257 267 269 261 259 265 268 259 247 286 306 309 295 312 334 320 300 289 284 281 278 280 284 288 291 291 290 290 291 294 298 300 302 303 305 307 309 311 312 311 311 310 309 308 308 308 308 308 308 308 307 307 306 305 304 302 299
212 212 212 213 214 214 216 222 223 220 218 219 221 222 223 228 234 235 234 236 237 233 229 229 232 239 249 257 262 276 280 276 285 303 301 293 280 280 304 323 304 308 331 331 314 299 289 284 284 287 291 294 296 294 292 291 292 294 297 300 303 306 310 313 314 315 315 315 314 313 312 311 310 309 309 308 308 308 308 308 308 307 307 304 300
214 214 211 210 212 214 217 221 225 225 222 221 222 224 228 234 242 244 240 239 238 232 229 231 234 239 245 254 264 276 285 288 299 309 305 293 281 279 292 309 303 307 323 324 316 310 298 293 298 304 309 309 305 300 294 291 292 294 295 298 301 305 310 315 316 317 317 317 316 315 313 312 311 310 310 310 310 310 310 310 310 309 308 307 303
216 216 214 210 212 215 217 222 226 228 227 224 222 225 230 238 249 251 245 243 241 236 236 236 235 236 241 250 265 276 285 293 301 311 313 294 271 268 278 290 298 304 315 310 303 305 300 301 310 317 337 341 333 324 313 303 300 299 298 298 300 303 308 312 314 315 317 317 317 317 316 315 315 314 314 314 314 314 315 315 314 314 312 311 308
220 219 218 215 214 217 219 223 226 229 228 226 224 225 230 240 251 251 243 242 243 242 244 243 239 238 239 248 261 271 280 290 291 301 319 308 274 266 268 271 297 313 319 310 298 294 286 295 301 293 331 353 353 350 345 335 327 321 314 310 310 313 317 319 320 322 323 324 324 325 326 326 325 324 323 322 323 323 323 322 320 319 317 316 313
224 223 221 219 218 219 221 224 227 229 229 228 226 227 230 238 246 246 241 241 243 245 246 245 245 243 241 247 257 263 275 289 287 286 307 317 295 273 266 250 251 308 329 325 309 298 288 302 306 288 319 349 352 354 353 347 344 339 331 326 324 327 330 331 332 335 336 336 336 337 338 338 336 335 333 332 332 331 329 326 325 325 325 324 323
228 227 225 223 221 222 224 227 229 231 232 231 229 228 231 237 242 243 244 243 241 244 246 247 250 249 246 247 253 260 269 280 282 278 289 298 290 265 263 258 246 237 297 323 299 286 297 317 319 308 326 341 343 345 346 347 350 349 343 338 336 335 336 339 342 344 344 343 344 345 344 341 339 337 337 338 337 335 332 331 333 335 337 338 338
231 230 229 227 225 226 228 230 232 233 235 234 231 229 232 237 242 244 247 246 243 242 244 247 250 252 251 249 250 256 263 271 277 278 277 274 262 252 255 260 264 254 226 233 282 286 292 315 323 323 332 339 341 341 343 348 351 352 350 347 344 344 345 347 348 347 346 345 346 346 344 342 342 341 342 344 343 340 338 339 343 347 349 350 349
232 232 231 230 228 229 230 231 233 234 237 237 234 232 234 239 243 245 245 245 244 242 241 243 244 248 253 252 250 252 258 267 274 275 270 265 256 253 254 255 266 276 264 233 236 285 291 306 316 321 329 334 337 340 343 347 351 352 350 348 348 349 348 349 349 347 346 347 347 348 348 347 347 348 349 349 348 347 348 351 353 355 354 354 355
232 232 233 232 231 231 231 232 234 235 237 239 238 236 237 240 243 245 246 245 245 245 244 243 244 247 251 254 253 252 255 262 269 270 269 267 261 255 258 260 262 275 276 251 235 273 290 300 309 317 327 328 330 337 342 345 349 350 348 349 350 349 348 350 350 348 347 351 354 355 352 350 351 353 352 352 353 356 358 358 358 357 357 359 358
232 232 233 234 234 233 232 232 232 233 235 237 239 239 240 241 243 245 247 248 249 250 249 249 248 248 250 253 254 253 254 258 262 265 267 267 264 262 265 267 265 268 271 263 255 275 293 300 305 313 321 324 327 336 341 342 344 346 345 349 350 348 348 349 348 349 353 358 359 357 356 356 357 357 357 358 1 1 360 359 0 2 0 357 352
232 232 233 234 235 234 233 232 232 232 234 237 238 240 242 244 245 245 247 249 252 253 253 252 251 250 251 252 253 255 255 257 258 258 261 265 267 269 270 268 268 268 269 269 267 272 288 297 303 310 316 322 325 331 336 337 339 341 341 345 348 347 346 347 348 353 357 358 358 0 4 4 2 2 4 6 4 0 1 4 5 1 354 348 345
230 231 233 235 235 235 234 233 233 234 237 239 239 241 243 245 247 248 248 249 251 254 254 254 251 250 250 250 252 255 256 257 258 256 257 262 266 270 271 269 268 268 270 274 274 272 281 292 300 306 312 318 321 325 330 332 334 335 336 339 343 343 346 350 351 353 357 2 9 13 11 8 9 13 13 8 4 6 10 9 2 355 349 347 348
229 230 232 234 234 234 234 234 235 237 240 242 242 242 244 246 248 249 250 251 252 253 255 255 254 252 251 250 252 254 256 258 259 256 255 259 264 266 269 272 270 270 273 277 279 279 279 286 295 301 308 313 316 320 324 327 329 331 333 337 340 343 346 347 349 356 6 14 17 16 14 15 20 20 14 9 12 17 13 5 358 354 353 354 356
228 229 231 231 232 233 235 236 237 239 242 244 245 245 245 247 248 250 251 252 254 255 256 258 257 256 254 254 255 256 257 260 260 257 255 257 263 264 266 271 274 274 276 278 282 283 280 282 291 299 304 308 312 316 320 324 326 328 332 336 340 342 340 342 351 4 14 16 16 16 18 23 25 21 18 19 20 16 8 2 359 358 360 1 359
229 229 230 231 232 233 236 238 239 241 244 245 246 247 248 248 249 250 251 252 254 256 258 259 259 259 258 258 259 259 258 260 261 260 258 258 261 263 264 268 273 276 277 279 282 281 280 283 289 294 300 305 308 313 318 322 324 326 331 336 339 341 339 344 356 8 13 14 14 16 20 25 28 28 27 24 16 9 4 2 2 3 3 1 357
232 231 231 232 233 235 237 239 241 243 244 245 246 247 248 248 249 249 250 251 254 256 258 259 260 261 261 262 263 262 260 259 261 262 263 263 263 263 264 266 271 274 276 279 281 279 279 284 287 290 296 301 304 308 313 318 321 326 332 335 335 336 340 348 355 1 8 12 10 13 22 28 33 36 27 16 10 6 4 3 4 5 3 360 358
234 234 234 234 235 236 238 240 241 243 243 243 244 245 246 247 247 247 248 250 252 255 257 259 260 260 262 263 265 265 263 262 261 262 265 267 268 268 267 268 269 272 274 277 278 277 278 282 285 289 293 296 300 304 310 316 322 328 334 333 327 329 337 347 353 357 3 3 2 8 17 25 35 35 19 9 8 7 5 6 6 4 1 360 360
233 235 235 236 236 237 238 240 241 242 242 242 243 243 244 244 244 245 247 248 250 253 255 258 259 260 261 263 265 266 266 265 265 266 267 269 271 272 273 272 271 272 274 275 275 275 276 278 281 285 289 292 297 303 309 315 319 323 328 328 323 327 336 341 346 357 358 351 353 2 13 26 32 22 11 9 9 5 4 7 6 2 0 1 3
231 233 235 236 236 237 238 239 241 241 242 242 243 243 243 243 243 243 244 246 248 249 252 255 258 260 261 263 265 266 267 268 268 268 269 270 271 272 274 276 275 275 274 274 274 274 274 275 278 283 286 289 295 300 304 309 314 318 324 327 324 327 336 338 340 349 350 343 345 355 8 22 20 12 8 11 10 2 4 8 5 1 2 4 5
231 232 233 235 236 237 238 239 240 241 242 243 243 244 244 244 243 242 242 244 246 247 249 251 255 259 261 263 264 266 267 268 268 268 268 269 270 271 273 275 276 277 276 274 274 275 275 274 277 281 281 285 293 298 300 305 310 316 321 323 319 319 329 333 329 331 337 337 339 344 352 2 7 7 7 11 9 3 7 8 2 1 5 7 7
232 232 233 235 236 237 238 239 240 241 243 244 244 244 245 245 244 242 241 242 243 245 246 248 252 256 259 262 264 265 266 268 269 270 270 271 272 272 274 275 276 277 277 275 275 275 275 275 278 280 279 282 290 295 298 302 308 313 317 317 313 312 315 313 304 310 323 332 332 333 333 335 355 2 3 9 8 3 7 6 1 3 7 8 10
232 233 234 235 237 237 238 239 240 242 244 245 245 245 246 246 245 242 240 240 241 243 245 247 250 253 256 259 261 263 266 268 269 270 270 271 273 274 274 275 275 275 275 275 275 276 276 275 274 277 280 282 284 290 296 298 302 307 311 311 310 308 306 303 300 306 317 325 325 323 317 313 340 358 0 2 359 355 360 2 2 5 8 9 11
230 232 234 235 236 237 238 238 240 241 243 245 245 246 246 246 246 244 241 239 240 242 244 246 248 251 254 256 258 262 265 267 268 269 269 270 272 273 274 275 275 275 274 275 276 277 277 275 272 274 279 281 281 288 294 295 297 302 304 305 307 306 302 302 304 307 314 319 316 310 302 298 324 348 350 340 333 344 352 358 4 7 7 8 11
228 230 232 234 235 236 237 238 238 240 242 244 245 245 246 247 246 245 242 239 238 240 243 245 247 250 253 254 256 259 263 265 267 268 268 268 269 271 272 274 275 276 276 276 277 279 280 280 278 278 282 283 283 285 289 291 294 298 299 300 301 299 298 300 302 305 311 313 304 294 287 289 310 339 343 315 291 323 344 355 5 9 8 6 9
228 229 230 232 234 235 236 236 236 239 241 243 243 244 246 246 245 244 242 239 237 238 241 244 246 249 251 253 253 255 259 263 266 267 266 266 266 266 268 271 273 275 276 277 277 278 279 281 283 284 287 288 286 285 285 285 287 291 294 294 293 291 288 290 294 300 306 302 292 287 283 287 305 330 334 298 267 293 332 355 9 10 8 7 8
226 227 228 230 232 233 235 235 235 237 240 241 242 243 245 245 244 242 240 238 236 237 240 243 245 247 250 251 252 253 255 259 263 265 265 263 261 261 263 266 268 271 275 278 277 276 276 277 280 283 285 286 285 282 280 277 278 283 285 284 284 283 274 269 280 290 295 290 283 281 276 278 299 319 323 293 256 269 317 357 15 12 9 9 10
225 227 228 229 231 232 233 234 234 235 238 240 240 241 243 244 242 241 240 237 235 236 239 242 244 246 249 251 251 251 253 257 261 264 263 260 258 258 260 261 263 267 272 277 277 277 277 278 280 282 282 282 281 277 274 271 271 275 277 279 282 278 262 256 267 276 285 284 273 266 261 263 287 311 322 307 257 252 301 352 15 14 10 10 13
225 227 228 229 230 231 232 234 234 235 237 239 239 240 242 242 241 240 238 235 233 235 238 241 243 245 247 250 251 250 253 257 260 262 261 259 258 258 259 258 258 263 270 275 276 277 279 281 282 283 283 283 280 276 273 270 267 270 275 278 280 271 256 258 265 265 274 276 256 245 242 242 264 302 328 325 275 245 296 349 17 18 12 10 13
Height
857 858 858 859 859 860 861 861 861 862 862 862 862 862 862 862 863 863 863 863 862 863 863 863 862 862 862 862 862 863 863 863 863 864 864 864 865 865 865 865 865 866 866 867 867 867 867 867 867 868 868 868 868 868 868 868 868 868 867 867 868 868 868 867 867 867 867 866 866 866 866 865 865 864 864 863 863 862 861 861 860 859 859 858 857
857 858 859 859 860 860 861 861 862 862 862 862 862 862 862 863 863 863 863 863 863 863 863 863 863 862 863 863 863 863 863 863 864 864 865 865 865 865 865 865 865 866 866 866 867 867 867 867 868 868 868 868 868 868 868 868 868 868 868 868 868 868 868 868 867 867 867 867 866 866 866 865 865 864 864 863 863 862 861 861 860 859 859 858 857
858 859 859 860 860 861 861 862 862 862 863 863 863 863 863 863 863 863 863 863 863 863 863 863 863 863 863 863 863 863 864 864 864 865 865 865 866 866 866 866 866 866 866 866 867 867 867 867 868 868 868 868 868 868 868 868 868 868 868 868 868 868 868 868 867 867 867 867 866 866 865 865 865 864 864 863 862 862 861 860 860 859 859 858 858
858 859 859 860 860 861 861 862 862 862 863 863 863 863 863 863 863 863 863 863 863 863 863 863 863 863 863 863 863 864 864 864 865 865 865 866 866 866 866 866 866 866 866 866 866 867 867 867 868 868 868 868 868 868 868 867 868 868 868 868 868 868 868 868 867 867 867 866 866 865 865 865 864 864 863 863 862 862 861 860 860 859 859 858 857
858 859 859 860 860 861 861 862 862 863 863 863 863 863 863 863 863 863 863 863 863 863 863 863 863 863 863 863 863 864 864 865 865 865 866 866 866 866 866 866 866 866 866 866 866 866 867 867 867 867 867 867 867 867 867 867 867 868 868 868 868 868 868 868 867 867 866 866 866 865 865 864 864 863 863 862 862 861 861 860 860 859 859 858 857
858 859 859 860 860 861 861 862 863 863 863 863 863 864 863 863 863 863 863 863 863 863 863 863 863 863 863 863 864 864 864 865 865 865 866 866 866 866 866 866 866 866 866 866 866 866 867 867 867 867 867 867 866 867 867 867 867 867 868 868 868 867 867 867 867 867 866 866 866 865 864 864 863 863 862 862 861 861 860 860 859 859 858 858 857
858 859 859 860 860 861 861 862 863 863 863 864 864 864 863 863 863 863 863 863 863 863 863 862 862 863 863 863 864 864 865 865 865 865 866 866 866 866 865 866 866 866 866 866 866 866 867 867 866 866 866 866 866 866 866 867 867 867 867 867 867 867 867 867 866 866 866 865 865 864 864 863 863 862 862 861 861 860 860 859 859 858 858 857 857
858 859 859 860 860 860 861 862 863 863 863 864 864 864 863 863 863 863 863 863 863 863 863 862 862 863 863 863 864 864 865 865 865 865 866 866 866 865 866 866 866 866 866 866 866 866 866 866 866 866 865 865 865 866 866 866 866 866 866 866 866 866 866 866 866 865 865 865 864 864 863 863 862 862 861 861 860 859 859 859 858 858 857 856 856
858 858 859 860 860 860 861 862 862 863 863 863 863 863 863 863 863 863 863 863 863 863 863 862 862 863 863 863 864 864 865 865 865 866 866 866 866 866 866 866 866 866 866 866 866 866 866 865 865 865 865 865 865 865 865 865 866 865 866 866 866 866 866 865 865 865 864 864 863 863 862 862 862 861 860 860 859 859 858 858 857 857 856 856 855
857 858 859 860 860 860 861 862 862 863 863 863 863 863 863 863 863 863 863 863 863 863 863 863 863 863 863 864 864 864 865 865 865 865 866 865 865 866 866 866 866 866 866 866 866 865 865 865 865 865 864 865 865 865 865 865 865 865 865 865 865 865 865 864 864 864 863 863 863 862 862 861 861 860 860 859 859 858 858 857 857 856 856 855 854
857 858 859 859 860 860 861 861 862 862 863 863 863 863 863 863 863 863 863 863 863 863 863 864 864 864 864 864 864 864 865 865 865 865 865 865 866 866 865 865 865 865 866 865 865 865 865 865 865 864 864 864 864 864 864 864 864 864 864 864 864 864 864 863 863 863 863 862 862 861 861 861 860 859 859 858 858 858 857 857 856 856 855 855 854
857 858 858 859 859 860 861 861 862 862 863 863 863 864 863 863 863 863 863 863 864 864 864 864 864 865 865 865 865 865 865 865 865 865 865 865 865 865 865 865 865 865 865 865 865 865 865 865 864 864 864 864 864 863 863 863 863 863 863 863 863 863 863 863 862 862 862 862 861 861 860 860 859 858 858 857 857 857 856 856 856 855 854 854 853
856 857 858 859 859 860 861 861 862 862 862 863 864 864 864 863 863 863 863 863 864 864 864 864 865 865 865 865 865 865 865 865 865 865 865 865 865 865 865 865 865 865 865 865 865 865 865 865 864 864 864 863 863 863 863 863 863 863 863 863 862 862 862 862 862 862 861 861 860 860 859 859 858 857 857 857 856 856 856 855 855 854 853 853 852
856 857 858 858 859 860 860 861 861 862 862 863 864 864 864 864 863 864 864 864 864 864 864 864 865 865 865 866 866 866 865 865 865 865 865 865 865 865 865 865 865 865 865 865 865 865 865 864 864 864 863 863 863 862 862 862 862 862 862 862 862 862 862 862 861 861 860 860 859 859 858 858 857 857 856 855 855 855 854 854 853 852 852 852 851
855 856 857 858 859 860 860 861 861 862 862 863 863 863 864 864 864 864 864 864 864 864 864 864 865 865 866 867 868 867 867 866 865 865 865 865 865 864 864 864 864 865 865 865 864 864 864 864 863 863 863 862 862 862 862 862 862 862 862 862 862 862 862 861 860 860 860 859 859 858 857 857 856 856 855 854 854 853 853 852 852 851 851 850 850
855 856 857 858 859 859 860 861 861 861 862 862 863 863 863 864 864 864 864 864 864 864 865 865 865 865 867 869 869 870 871 868 865 865 865 865 864 864 864 864 864 864 864 864 864 864 864 863 863 862 862 862 862 862 862 862 862 862 862 862 862 861 861 860 860 859 859 858 858 857 857 856 855 855 854 854 853 852 852 851 850 850 849 849 848
855 856 857 858 858 859 860 860 861 861 861 862 862 863 863 863 864 864 864 864 864 865 865 865 865 865 866 868 870 872 872 868 866 865 864 864 864 863 863 863 863 864 863 863 863 863 863 863 862 862 861 861 861 861 861 861 861 861 861 861 861 861 860 860 860 859 859 858 857 857 856 855 855 854 853 853 852 851 851 850 849 849 848 847 847
854 855 856 857 858 859 859 860 860 861 861 861 862 862 863 863 863 864 864 864 865 865 865 865 865 865 865 866 868 869 868 866 868 868 865 863 863 863 863 863 863 863 863 862 862 862 862 862 861 861 861 861 861 861 861 861 861 861 861 861 861 860 860 860 859 859 858 858 857 856 855 855 854 853 852 852 851 850 849 849 848 847 847 846 845
854 855 856 857 858 858 859 860 860 860 861 861 861 862 863 863 864 864 864 865 865 865 865 865 865 865 866 866 866 866 866 866 867 869 868 866 863 863 863 862 862 862 861 861 861 861 861 861 860 860 860 860 860 860 860 860 860 860 860 860 860 860 859 859 859 858 858 857 856 856 855 854 853 852 851 851 850 849 848 847 846 846 845 844 844
853 854 855 856 857 858 859 859 860 860 860 861 861 862 862 863 863 864 864 864 865 865 865 865 865 865 866 866 866 866 866 866 866 867 868 868 865 863 862 862 862 861 860 860 860 860 860 859 859 859 859 859 859 860 860 860 860 860 860 860 860 860 859 859 858 858 857 857 856 855 854 853 852 851 850 849 849 848 847 846 845 844 843 843 842
852 853 855 856 856 857 858 859 859 860 860 860 861 862 862 863 863 864 864 864 865 865 865 865 865 866 866 865 866 866 866 866 866 865 866 868 868 864 862 862 861 860 860 859 859 859 859 859 858 858 858 858 859 859 859 859 859 859 859 859 859 859 859 858 857 857 856 855 855 854 853 852 851 850 849 848 847 846 845 844 843 843 842 841 840
851 852 854 855 856 857 857 858 859 859 860 860 861 861 862 863 863 863 864 864 864 865 865 865 865 865 866 865 865 866 866 865 865 865 865 866 867 865 863 863 862 860 860 859 859 858 858 858 858 858 858 858 858 858 858 858 858 858 858 858 858 858 857 857 856 856 855 854 853 852 851 851 850 849 848 847 846 845 844 843 842 841 840 839 838
850 851 853 854 855 856 857 857 858 859 859 860 860 861 862 862 863 863 864 864 864 864 864 865 865 865 865 865 865 865 865 865 865 865 865 865 866 865 864 863 862 861 860 859 859 858 858 857 857 857 857 857 857 857 857 857 857 857 857 857 857 857 856 856 855 855 854 853 852 851 850 849 848 847 846 845 844 843 842 841 840 839 837 836 835
849 850 851 852 853 855 856 856 857 858 858 859 860 861 861 862 863 863 863 864 864 864 864 864 864 865 865 865 865 865 865 865 865 865 865 865 866 865 864 863 862 861 861 860 859 858 857 857 857 857 857 857 857 857 856 856 856 856 856 856 856 856 856 855 854 854 852 851 851 849 848 847 846 846 844 843 842 841 840 839 838 837 835 834 833
847 848 849 850 852 853 854 855 856 857 858 859 859 860 861 862 862 862 863 863 863 863 864 864 864 864 865 865 865 865 865 865 865 865 865 865 865 865 864 864 863 862 861 860 859 858 858 857 857 857 857 857 856 855 855 855 855 855 855 855 855 855 855 854 853 852 851 850 849 848 847 846 845 844 842 841 840 839 838 837 836 835 833 831 830
845 846 847 849 850 851 853 854 855 856 857 858 859 859 860 861 861 862 862 863 863 863 863 864 864 864 864 865 865 865 865 865 865 865 864 864 864 864 864 864 863 862 861 860 859 858 858 857 857 857 857 856 855 855 854 854 854 854 854 854 854 854 854 853 852 851 850 849 847 846 845 844 843 842 840 839 838 837 836 835 834 832 831 829 828
843 845 847 848 849 850 852 853 854 855 856 857 858 859 860 860 861 861 862 862 863 863 863 863 863 864 864 864 865 865 865 865 865 865 864 864 863 863 864 864 865 863 861 860 859 858 858 857 857 857 857 856 855 854 854 853 853 853 853 852 852 852 852 852 851 850 848 847 846 844 843 842 841 840 839 837 836 835 834 833 831 830 828 827 825
843 844 845 847 848 849 850 852 853 854 855 856 857 858 859 859 860 860 861 862 862 863 863 863 863 863 864 864 864 864 865 865 865 865 864 864 863 863 864 864 866 866 864 862 860 858 858 857 857 857 857 856 856 855 854 853 853 853 852 852 851 851 851 850 849 848 847 845 844 843 842 841 839 838 837 836 835 833 832 831 829 828 826 824 822
842 843 844 846 847 848 850 851 852 853 854 855 856 857 858 859 859 860 860 861 862 862 863 863 863 863 863 864 864 864 864 864 864 865 865 864 864 864 864 864 865 866 866 866 862 859 858 858 857 857 857 856 856 855 854 854 853 853 852 851 850 850 849 849 848 847 845 844 843 842 841 839 838 837 835 834 833 832 830 829 827 826 824 822 820
840 841 843 844 846 847 849 850 851 852 853 854 855 856 857 858 858 859 860 860 861 861 862 862 862 863 863 863 863 864 864 864 864 864 864 864 864 864 864 864 864 864 865 866 864 860 858 858 858 857 857 856 855 854 854 853 853 852 852 851 850 849 848 847 846 845 844 843 842 841 840 838 837 835 834 833 832 830 829 827 825 824 822 820 819
838 840 842 843 845 846 847 849 850 851 852 853 854 855 856 857 857 858 859 860 860 861 861 862 862 862 862 862 863 863 864 864 864 864 864 864 864 864 864 864 864 864 863 864 864 861 859 858 858 857 856 855 855 854 853 853 852 852 851 850 849 848 847 846 845 844 843 842 841 840 839 837 836 834 833 832 830 829 827 826 824 822 821 819 817
836 838 840 841 843 844 846 847 848 850 851 852 853 854 855 855 856 857 858 859 859 860 860 861 861 862 862 862 862 862 863 863 863 864 863 864 864 863 864 863 863 864 863 863 863 860 858 858 857 857 856 855 854 854 853 852 852 851 850 849 848 847 846 845 844 844 842 841 840 839 838 836 835 833 832 831 829 827 826 824 822 821 820 818 817
834 836 837 839 841 842 844 845 847 848 849 850 851 852 853 854 855 856 857 858 858 859 859 860 860 861 861 861 861 861 862 862 862 863 863 863 863 863 863 863 863 863 863 862 862 860 857 857 857 856 856 855 854 853 853 851 851 850 849 848 847 846 845 844 844 843 842 841 839 838 837 836 834 833 831 830 828 826 824 823 822 820 819 817 816
832 833 835 837 839 840 842 843 845 846 847 848 849 850 851 852 853 854 855 856 857 857 858 858 859 860 860 860 860 860 861 861 862 862 862 863 863 863 863 863 863 863 863 862 862 860 857 856 856 856 855 855 854 853 853 852 850 849 848 848 847 846 845 844 843 843 841 840 839 837 836 835 834 832 830 828 826 825 824 823 821 820 818 817 815
829 831 833 834 836 838 840 841 842 844 845 846 847 848 849 850 851 852 853 854 855 856 856 856 857 858 859 859 859 859 860 860 860 861 862 862 862 862 862 862 862 862 862 862 861 860 858 856 855 855 854 854 854 853 853 852 851 850 849 848 847 846 845 844 843 842 841 839 838 837 836 834 833 831 829 827 826 825 823 822 821 819 818 816 814
827 828 830 832 834 836 837 839 840 841 843 844 845 846 847 848 848 849 851 852 852 853 854 855 856 857 858 858 858 858 859 859 859 860 860 861 861 861 861 861 861 861 862 862 861 860 859 857 855 854 854 854 853 853 853 852 851 850 849 848 847 846 845 844 843 841 840 839 838 837 836 834 833 830 828 827 826 824 823 822 821 819 817 816 814
824 826 827 829 831 833 834 836 837 839 840 841 843 844 845 846 846 847 848 849 850 851 852 853 854 855 856 856 857 858 859 858 858 859 859 860 860 860 861 861 861 861 861 861 861 860 859 857 855 854 854 854 853 853 852 851 850 849 848 847 846 845 844 843 842 841 840 839 838 837 835 834 832 830 828 827 826 824 823 822 820 818 817 815 813
823 824 825 827 828 830 831 833 834 836 837 839 840 841 842 844 845 846 846 847 848 849 850 851 852 853 854 855 855 856 857 858 857 858 858 859 859 859 859 860 860 860 860 860 860 859 859 857 856 854 853 853 852 852 852 851 850 848 847 846 845 844 843 841 840 840 839 839 838 837 835 834 832 830 828 827 825 824 823 821 820 818 816 814 813
821 822 823 824 826 827 829 830 831 833 835 836 837 839 840 841 843 844 845 846 846 847 848 849 850 851 852 853 854 854 855 856 856 857 857 857 858 858 858 859 859 859 859 859 859 858 858 857 856 854 853 853 852 851 851 850 850 848 847 844 843 843 842 841 839 839 838 838 837 836 835 834 832 830 828 827 825 824 823 821 819 817 816 814 812
818 820 821 822 823 825 826 827 829 830 832 833 834 836 837 839 840 841 842 843 844 845 846 847 848 849 850 851 851 852 853 854 855 855 856 856 857 857 857 858 858 858 858 858 858 858 857 856 855 854 853 852 851 851 850 849 849 847 846 845 843 841 841 840 839 838 838 837 837 836 835 834 832 830 828 827 825 824 822 820 819 817 815 813 810
815 817 819 821 822 822 824 825 826 828 829 830 831 833 834 836 837 838 840 841 842 843 843 844 845 846 847 848 849 850 851 851 852 853 854 855 856 856 856 857 857 857 857 857 857 857 856 856 854 854 853 851 850 850 849 849 848 847 846 845 843 841 840 839 839 838 837 837 836 836 834 833 832 830 828 826 825 823 822 820 818 816 814 812 810
812 814 816 818 819 820 821 822 823 825 826 827 828 830 831 833 834 835 837 838 839 840 841 842 843 844 845 846 847 847 849 849 850 851 852 853 854 854 855 855 856 856 856 856 856 856 855 855 854 853 852 850 849 849 849 848 847 847 845 844 843 841 840 838 837 838 837 836 835 835 834 833 832 830 828 826 825 823 821 819 818 816 814 811 809
809 811 813 814 815 817 818 819 820 821 822 823 825 827 828 830 831 832 834 835 836 837 838 839 840 841 842 843 844 845 846 847 848 849 850 851 852 853 853 854 854 855 855 855 855 854 854 853 852 852 851 849 848 848 848 847 846 846 844 844 843 841 840 839 838 837 837 836 835 834 834 833 831 830 828 826 825 823 821 819 818 816 813 811 808
806 808 809 810 811 813 815 816 817 817 818 820 822 824 825 826 828 830 831 832 833 834 835 836 837 838 839 841 842 843 844 845 846 847 848 848 849 850 851 852 852 853 853 853 853 853 853 852 851 851 850 848 847 846 846 845 845 844 843 843 842 841 840 840 839 837 836 836 834 834 833 832 831 829 827 826 825 823 821 820 818 816 813 811 808
803 804 805 806 808 809 811 812 813 814 814 816 818 820 821 823 824 826 828 829 830 831 832 833 834 835 837 838 839 840 841 842 843 845 845 846 846 847 848 849 850 850 851 851 851 851 851 851 850 849 848 847 846 845 845 844 843 843 842 841 841 840 839 838 838 836 836 835 834 833 832 831 831 829 827 826 825 823 821 820 818 816 813 810 808
799 800 801 803 804 805 807 808 809 810 810 812 814 815 817 818 820 822 824 825 826 827 828 829 831 832 834 835 836 837 838 839 840 841 842 843 843 844 845 846 846 847 848 848 849 849 849 849 848 846 845 845 844 843 843 843 842 841 841 840 839 839 837 836 835 835 834 834 833 832 831 830 830 829 827 825 824 823 821 820 818 816 813 810 808
793 794 796 798 800 801 802 804 805 806 806 807 809 811 812 814 816 818 820 822 823 824 825 826 827 829 830 832 833 833 834 835 836 837 838 839 840 841 842 842 843 843 844 844 845 845 845 845 845 844 843 843 842 841 841 842 841 840 839 838 837 836 835 834 833 833 832 832 831 831 830 829 828 828 826 825 824 822 821 820 818 816 813 811 808
789 790 792 793 794 796 797 799 801 801 801 802 804 806 807 810 812 814 816 818 819 820 821 823 824 825 826 827 828 829 830 831 832 833 835 836 837 838 838 838 839 839 839 840 841 842 842 841 841 841 840 840 840 839 839 839 838 837 836 835 834 834 833 832 831 831 830 830 830 829 829 827 827 826 825 824 823 821 821 820 818 815 813 811 808
785 786 787 788 789 791 793 795 796 795 795 797 799 801 803 806 808 810 812 814 816 817 818 819 820 821 822 823 824 825 826 826 827 829 831 833 834 835 835 835 835 835 835 835 836 837 838 838 838 838 837 837 837 836 836 836 836 835 834 832 832 831 831 831 829 829 829 828 828 828 827 826 825 824 823 823 822 821 820 819 817 815 813 811 809
780 781 782 783 784 786 787 788 789 790 790 792 794 796 798 801 804 806 808 810 811 813 814 815 816 817 818 819 820 821 822 822 824 825 827 829 831 832 832 832 833 832 831 831 832 833 833 834 834 834 833 833 833 833 833 833 833 833 831 830 829 829 829 828 827 827 827 827 826 826 826 825 824 823 822 821 820 819 819 818 817 815 813 811 809
776 777 779 780 780 780 782 783 784 786 786 787 790 792 794 797 799 801 803 805 807 808 810 811 812 813 814 815 816 818 818 819 820 822 824 826 828 829 829 830 831 829 828 829 829 830 830 830 830 830 830 830 830 830 830 830 830 830 829 828 827 827 826 826 825 825 825 825 824 825 824 824 823 823 822 821 819 818 818 817 816 814 812 811 809